Tracking 22779 objects as of 14-Apr-2021
HD Live streaming from Space Station
objects crossing your sky now

NAVSTAR 79 (USA 304)

Track NAVSTAR 79 (USA 304) now!
NAVSTAR 79 (USA 304) is classified as:


NORAD ID: 45854
Int'l Code: 2020-041A
Perigee: 20,163.3 km
Apogee: 20,214.9 km
Inclination: 55.2 °
Period: 718.0 minutes
Semi major axis: 26560 km
RCS: Unknown
Launch date: June 30, 2020
Source: United States (US)
Launch site: AIR FORCE EASTERN TEST RANGE (AFETR)
PRN: 23
aabbcc
Your satellite tracking list
Your tracking list is empty




NASA's NSSDC Master Catalog

Two Line Element Set (TLE):
1 45854U 20041A   21102.12222619  .00000019  00000-0  00000-0 0  9994
2 45854  55.2201 103.5155 0009700 156.5992 203.4664  2.00566444  6086
Source of the keplerian elements: AFSPC